Tiempo cada hora Barry

Hoy, 27 Febrero, Sábado

Tiempo Temperatura Precipitaciones Viento Presión Humedad
00:00 +5°C° 0 mm 1 mps 777 mmHg 88%
01:00 +5°C° 0 mm 1 mps 777 mmHg 87%
02:00 +4°C° 0 mm 1 mps 777 mmHg 87%
03:00 +4°C° 0 mm 1 mps 777 mmHg 87%
04:00 +4°C° 0 mm 1 mps 777 mmHg 87%
05:00 +4°C° 0 mm 1 mps 777 mmHg 86%
06:00 +4°C° 0 mm 1 mps 777 mmHg 86%
07:00 +5°C° 0 mm 1 mps 778 mmHg 83%
08:00 +6°C° 0 mm 1 mps 778 mmHg 80%
09:00 +7°C° 0 mm 1 mps 778 mmHg 78%
10:00 +8°C° 0 mm 1 mps 778 mmHg 74%
11:00 +9°C° 0 mm 1 mps 778 mmHg 70%
12:00 +11°C° 0 mm 1 mps 778 mmHg 66%
13:00 +11°C° 0 mm 1 mps 778 mmHg 66%
14:00 +11°C° 0 mm 1 mps 777 mmHg 65%
15:00 +11°C° 0 mm 1 mps 777 mmHg 64%
16:00 +10°C° 0 mm 1 mps 777 mmHg 71%
17:00 +8°C° 0 mm 1 mps 777 mmHg 77%
18:00 +7°C° 0 mm 1 mps 777 mmHg 83%
19:00 +7°C° 0 mm 1 mps 777 mmHg 84%
20:00 +6°C° 0 mm 1 mps 777 mmHg 84%
21:00 +6°C° 0 mm 1 mps 777 mmHg 85%
22:00 +5°C° 0 mm 2 mps 777 mmHg 85%
23:00 +5°C° 0 mm 2 mps 777 mmHg 86%

Mañana, 28 Febrero, Domingo

Tiempo Temperatura Precipitaciones Viento Presión Humedad
00:00 +4°C° 0 mm 2 mps 777 mmHg 87%
01:00 +4°C° 0 mm 2 mps 776 mmHg 87%
02:00 +4°C° 0 mm 2 mps 776 mmHg 88%
03:00 +4°C° 0 mm 2 mps 776 mmHg 88%
04:00 +3°C° 0 mm 2 mps 775 mmHg 88%
05:00 +3°C° 0 mm 2 mps 775 mmHg 89%
06:00 +3°C° 0 mm 2 mps 775 mmHg 89%
07:00 +3°C° 0 mm 3 mps 775 mmHg 87%
08:00 +4°C° 0 mm 3 mps 775 mmHg 84%
09:00 +5°C° 0 mm 3 mps 775 mmHg 82%
10:00 +7°C° 0 mm 3 mps 775 mmHg 78%
11:00 +8°C° 0 mm 3 mps 775 mmHg 74%
12:00 +10°C° 0 mm 3 mps 775 mmHg 70%
13:00 +10°C° 0 mm 4 mps 775 mmHg 70%
14:00 +11°C° 0 mm 4 mps 774 mmHg 70%
15:00 +11°C° 0 mm 4 mps 773 mmHg 70%
16:00 +10°C° 0 mm 4 mps 773 mmHg 76%
17:00 +7°C° 0 mm 4 mps 773 mmHg 81%
18:00 +6°C° 0 mm 4 mps 773 mmHg 87%
19:00 +6°C° 0 mm 4 mps 773 mmHg 88%
20:00 +5°C° 0 mm 4 mps 773 mmHg 89%
21:00 +5°C° 0 mm 4 mps 773 mmHg 90%
22:00 +4°C° 0 mm 4 mps 773 mmHg 90%
23:00 +4°C° 0 mm 4 mps 773 mmHg 91%

Pasado mañana, 1 Marzo, Lunes

Tiempo Temperatura Precipitaciones Viento Presión Humedad
00:00 +3°C° 0 mm 4 mps 773 mmHg 91%
01:00 +3°C° 0 mm 4 mps 772 mmHg 92%
02:00 +3°C° 0 mm 4 mps 772 mmHg 92%
03:00 +1°C° 0 mm 4 mps 772 mmHg 93%
04:00 +1°C° 0 mm 4 mps 771 mmHg 93%
05:00 +1°C° 0 mm 5 mps 771 mmHg 93%
06:00 +1°C° 0 mm 5 mps 771 mmHg 94%
07:00 +2°C° 0 mm 5 mps 771 mmHg 92%
08:00 +2°C° 0 mm 5 mps 771 mmHg 90%
09:00 +3°C° 0 mm 5 mps 771 mmHg 88%
10:00 +5°C° 0 mm 6 mps 771 mmHg 83%
11:00 +7°C° 0 mm 6 mps 771 mmHg 79%
12:00 +9°C° 0 mm 6 mps 771 mmHg 75%
13:00 +10°C° 0 mm 6 mps 770 mmHg 74%
14:00 +10°C° 0 mm 6 mps 770 mmHg 72%
15:00 +10°C° 0 mm 6 mps 769 mmHg 71%
16:00 +9°C° 0 mm 6 mps 769 mmHg 76%
17:00 +8°C° 0 mm 5 mps 769 mmHg 81%
18:00 +7°C° 0 mm 5 mps 769 mmHg 85%
19:00 +6°C° 0 mm 5 mps 769 mmHg 86%
20:00 +5°C° 0 mm 5 mps 769 mmHg 88%
21:00 +5°C° 0 mm 5 mps 769 mmHg 89%
22:00 +3°C° 0 mm 5 mps 769 mmHg 89%
23:00 +2°C° 0 mm 5 mps 769 mmHg 90%

2 Marzo, Martes

Tiempo Temperatura Precipitaciones Viento Presión Humedad
00:00 +3°C° 0 mm 4 mps 769 mmHg 90%
01:00 +1°C° 0 mm 4 mps 769 mmHg 91%
02:00 +1°C° 0 mm 4 mps 768 mmHg 91%
03:00 +1°C° 0 mm 4 mps 768 mmHg 92%
04:00 +1°C° 0 mm 4 mps 768 mmHg 93%
05:00 0°C° 0 mm 4 mps 768 mmHg 94%
06:00 0°C° 0 mm 4 mps 768 mmHg 94%
07:00 +1°C° 0 mm 4 mps 768 mmHg 92%
08:00 +3°C° 0 mm 4 mps 768 mmHg 90%
09:00 +4°C° 0 mm 4 mps 768 mmHg 88%
10:00 +6°C° 0 mm 4 mps 768 mmHg 84%
11:00 +7°C° 0 mm 4 mps 768 mmHg 80%
12:00 +9°C° 0 mm 5 mps 768 mmHg 76%
13:00 +10°C° 0 mm 4 mps 768 mmHg 75%
14:00 +11°C° 0 mm 4 mps 767 mmHg 74%
15:00 +11°C° 0 mm 4 mps 767 mmHg 72%
16:00 +10°C° 0 mm 4 mps 767 mmHg 78%
17:00 +9°C° 0 mm 3 mps 767 mmHg 83%
18:00 +8°C° 0 mm 3 mps 767 mmHg 89%
19:00 +7°C° 0 mm 3 mps 767 mmHg 90%
20:00 +7°C° 0 mm 3 mps 767 mmHg 90%
21:00 +5°C° 0 mm 3 mps 767 mmHg 91%
22:00 +5°C° 0.1 mm 3 mps 767 mmHg 91%
23:00 +7°C° 0.1 mm 3 mps 767 mmHg 91%

3 Marzo, Miércoles

Tiempo Temperatura Precipitaciones Viento Presión Humedad
00:00 +7°C° 0.1 mm 3 mps 767 mmHg 91%
01:00 +7°C° 0.3 mm 3 mps 767 mmHg 92%
02:00 +7°C° 0.3 mm 3 mps 767 mmHg 93%
03:00 +7°C° 0.3 mm 3 mps 767 mmHg 94%
04:00 +5°C° 0.2 mm 3 mps 767 mmHg 94%
05:00 +5°C° 0.2 mm 3 mps 767 mmHg 94%
06:00 +5°C° 0.2 mm 3 mps 767 mmHg 94%
07:00 +7°C° 0 mm 3 mps 768 mmHg 92%
08:00 +7°C° 0 mm 3 mps 768 mmHg 90%
09:00 +8°C° 0 mm 3 mps 768 mmHg 89%
10:00 +8°C° 0 mm 2 mps 769 mmHg 86%
11:00 +9°C° 0 mm 2 mps 769 mmHg 83%
12:00 +10°C° 0 mm 2 mps 769 mmHg 80%
13:00 +12°C° 0 mm 2 mps 769 mmHg 78%
14:00 +12°C° 0 mm 1 mps 769 mmHg 77%
15:00 +13°C° 0 mm 1 mps 769 mmHg 75%
16:00 +12°C° 0 mm 1 mps 769 mmHg 79%
17:00 +11°C° 0 mm 1 mps 769 mmHg 84%
18:00 +10°C° 0 mm 1 mps 769 mmHg 88%
19:00 +9°C° 0 mm 1 mps 769 mmHg 89%
20:00 +8°C° 0 mm 1 mps 770 mmHg 90%
21:00 +7°C° 0 mm 2 mps 770 mmHg 91%
22:00 +7°C° 0 mm 1 mps 770 mmHg 91%
23:00 +7°C° 0 mm 1 mps 770 mmHg 91%

4 Marzo, Jueves

Tiempo Temperatura Precipitaciones Viento Presión Humedad
00:00 +7°C° 0 mm 1 mps 770 mmHg 90%
01:00 +7°C° 0 mm 1 mps 770 mmHg 90%
02:00 +6°C° 0 mm 1 mps 770 mmHg 90%
03:00 +6°C° 0 mm 1 mps 770 mmHg 90%
04:00 +6°C° 0 mm 1 mps 770 mmHg 91%
05:00 +6°C° 0 mm 1 mps 769 mmHg 91%
06:00 +5°C° 0 mm 1 mps 769 mmHg 91%
07:00 +6°C° 0 mm 1 mps 769 mmHg 88%
08:00 +7°C° 0 mm 1 mps 769 mmHg 86%
09:00 +8°C° 0 mm 1 mps 769 mmHg 84%
10:00 +10°C° 0 mm 1 mps 769 mmHg 79%
11:00 +11°C° 0 mm 1 mps 769 mmHg 75%
12:00 +12°C° 0 mm 1 mps 769 mmHg 71%
13:00 +12°C° 0 mm 1 mps 768 mmHg 70%
14:00 +12°C° 0 mm 2 mps 768 mmHg 70%
15:00 +13°C° 0 mm 2 mps 767 mmHg 70%
16:00 +10°C° 0 mm 2 mps 767 mmHg 76%
17:00 +9°C° 0 mm 2 mps 766 mmHg 82%
18:00 +7°C° 0 mm 2 mps 766 mmHg 88%
19:00 +7°C° 0 mm 2 mps 766 mmHg 88%
20:00 +7°C° 0 mm 2 mps 766 mmHg 88%
21:00 +7°C° 0 mm 2 mps 766 mmHg 89%
22:00 +6°C° 0 mm 2 mps 766 mmHg 88%
23:00 +6°C° 0 mm 2 mps 766 mmHg 87%
Mostrar más

Necesitamos Su Consentimiento

Meteoprog y nuestros Proveedores de Servicios pueden almacenar y acceder a sus datos personales como cookies, identificadores de dispositivo u otras tecnologías similares de su dispositivo y procesar dichos datos para personalizar contenido y anuncios, además de ofrecer funciones de redes sociales y analizar el tráfico.

  • Almacenar y/o acceder a información en su dispositivo

    Se puede almacenar o acceder a cookies, identificadores de dispositivo u otra información de su dispositivo para los fines anteriormente indicados.

  • Anuncios y contenido personalizados, medición de anuncios y contenido, percepciones del público, y desarrollo de productos

    Los anuncios y el contenido pueden personalizarse en base a su perfil. Se pueden añadir más datos para personalizar mejor los anuncios y contenidos. Se puede medir el rendimiento de los anuncios y contenidos. Se puede obtener la percepción sobre el público que ha visto los anuncios y contenidos. Dichos datos pueden usarse para desarrollar o mejorar la experiencia del usuario, sistemas y software.

Al hacer clic en ‘Estoy De Acuerdo’ usted permitirá el uso de las cookies, identificadores de dispositivo, balizas web u otras tecnologías similares indicadas. Su configuración puede cambiarse desde el navegador de su dispositivo.

Para ciertos fines, los intereses legítimos pueden ser considerados por encima del consentimiento. Puede leer más sobre ello en nuestra Política de Privacidad y Cookies.